Simultaneous Nadir Overpasses (SNOs) Predictions

Prediction of SNOs between GOES-16 and METOP-B Satellite Orbit:

Table of predicted SNOs for the next 14.0 days since TLE Epoch: 4/25/2025
Index Date Time (GOES-16) GOES-16 Lat,Lon METOP-B Lat,Lon Distance(km) Time Diff (sec)
1 04/26/2025 02:58:05 -0.07, -83.12 -0.91, -86.84 424.25 80
2 04/27/2025 02:34:49 -0.07, -83.63 0.34, -81.89 198.28 80
3 04/28/2025 14:56:23 0.07, -84.42 0.55, -86.50 237.97 80
4 04/29/2025 14:33:06 0.06, -84.92 -0.70, -81.55 384.45 80
5 05/01/2025 02:54:51 -0.06, -85.69 -0.15, -86.21 59.72 80
6 05/02/2025 15:13:45 0.05, -86.48 1.03, -90.83 495.53 80
7 05/03/2025 14:50:27 0.05, -86.99 -0.17, -85.87 127.42 80
8 05/05/2025 03:12:12 -0.05, -87.76 -0.67, -90.53 315.65 80
9 05/06/2025 02:48:54 -0.04, -88.27 0.54, -85.57 307.96 80
10 05/07/2025 15:10:30 0.04, -89.09 0.27, -90.20 126.12 80
11 05/08/2025 14:47:12 0.04, -89.60 -0.95, -85.24 497.88 80
